Volver al catálogo

STARLINK-36033

ActivoComunicacionesVLEO
NORAD 66893·PAYLOAD·🇺🇸 United States

Lanzado Dec 4, 2025 desde Vandenberg Space Force Base

Loading…

Próximos Pases (próximas 24 horas)

TLE

ActualizadoSource: CelesTrak SupGP

Época: Sep 14, 2026, 22:49 UTC

1 66893C 25283R   26257.95118056  .00009859  00000+0  29120-3 0  2573
2 66893  53.1585 223.6632 0001414 100.5802 155.5501 15.34395762    19

Sigue STARLINK-36033 en tiempo real con AllMySat

Download on the App Store